STARLINK-3909, 52452

Orbit data source: Space-Track

STARLINK-3909, 52452 is a payload satellite owned by SpaceX/Seattle (US) in LEO that was launched on Fri, 06 May 2022 UTC via an FALCON 9 launch vehicle from the Air Force Eastern Test Range (AFETR). Payload-class satellites include a variety of spacecraft equipped with specific instruments for various scientific and technological missions. These include communications satellites like Starlink; space stations such as the ISS; scientific satellites like the Hubble; Earth observation satellites from companies like Planet Labs, Umbra, and HawkEye 360; GPS; miniature CubeSats for education and research; and military/defense satellites.

Loading next visibility...
Identifier
52452, 2022-049B
Orbit
LEO
Country
Flag of USUS
Related business
Manufacturer
SpaceX/Seattle
Mission
Operational Commercial Communications
Bus & Motor
STARLINK, Unknown motor
Mass
297 kg wet, ~220 kg dry
Launch date (UTC)
2022-05-06 (4 years ago)
Launch vehicle
FALCON 9
Launch site
Air Force Eastern Test Range (AFETR)
Object type
Payload
Rocket body
Debris
Shape & HBR
Box + 1 Pan, 10.1 m
Radar Cross Section
13.562 m², Large (>1 m²)

Expand to show TLE details & history
Last TLE update: 17 hours ago

TLE from 17 hours ago
0 STARLINK-3909
1 52452U 22049B   25346.74973911 -.00001297  00000-0 -63412-4 0  9997
2 52452  53.2164  99.2831 0001273  83.4046 276.7091 15.08827967198981
Epoch: 2025-12-12T17:59Z
TLE epoch observation values (Epoch: 2025-12-12T17:59:37.459Z)
Latitude
-0.00001°
Longitude
107.69013°
Altitude
540.575 km
Speed
7.593 km/s
True Right ascension
06h 37m 07s
True Declination
0° 00' 00"
Sunlit
Object was in full shadow at epoch
Visualization orbit readout
Latitude
Unknown
Longitude
Unknown
Altitude
Unknown
Speed
Unknown
Apparent Right ascension
Unknown
Apparent Declination
Unknown
Sunlit
N/A
Visualization observer readout
Local Sidereal Time
09:14:01
Azimuth
Unknown
Elevation
Unknown
Doppler factor
Unknown
Orbital elements
Apogee altitude
540.906 km
Perigee altitude
539.145 km
Semi-major axis
6,918.162 km
Eccentricity
0.00013
Inclination
53.2164°
RAAN
99.2831°
Arg. of periapsis
83.4046°
True anomaly
276.69461°
Mean anomaly
276.7091°
Eccentric anomaly
276.70186°
Mean motion
3.77187 °/min
Orbital period
95.44 mins
BSTAR
-0.000063412
Loading maneuver chart data...
Computing Atmospheric mass density...
Loading historical data...
Loading historical data...
Loading historical data...
Loading historical data...
Loading historical data...
Loading historical data...
Loading historical data...

Documentation

Showing up to 5 results
|